Location: Unspecified
(42.3650°N, 71.1030°W)
Time: 16:02:10
(UTC+00:00)

Resurs 01 Rocket - Pass Details

Date: 02 March 2024
Orbit: 632 x 639 km, 97.8° (Epoch: 18 April)

Event Time Altitude Azimuth Distance (km) Brightness Sun altitude
Exits shadow 23:17:35 10° 77° (ENE) 2,010 3.5 -8.4°
Maximum altitude 23:18:48 11° 61° (ENE) 1,940 3.6 -8.7°
Drops below altitude 10° 23:20:08 10° 43° (NE) 2,024 3.8 -8.9°
Sets 23:23:54 0° 10° (N) 2,937 4.9 -9.6°
